Find Starlink 30041

NORAD ID: 57613 Int'l Des: 2023-119 Owner: SPXS Country: US Constellation: starlink operational
LEOCIRCULAR

現在のビュー

3D地球を読み込み中...

About Starlink 30041

Starlink 30041 (NORAD 57613) is a starlink constellation satellite (v2 mini) launched Aug 11, 2023 by SPXS of US. It operates in LEO, CIRCULAR orbit with a mass of 730.00 kg.

次回通過

Passes for default location (London). Set your location on the main map for personalized predictions.

高度履歴

Loading altitude history...

軌道要素

1 57613U 23119M 26252.84810944 -.00001443 00000-0 -42922-4 0 9990
2 57613 43.0021 121.3195 0001281 270.4977 89.5728 15.27578321171250
Epoch: Sep 9, 2026 • Age: 11 hours

現在のステータス

高度 495.0 km
遠地点 / 近地点 N/A
速度 7.62 km/s
衛星直下点 -41.90°S, 48.66°W
打ち上げ日 Aug 11, 2023
運用期間 3 years
タイプ internet

技術仕様

分類 Payload
質量 730.00 kg
乾燥質量 700.00 kg
総質量 730.00 kg
長さ 0.30 m
直径 4.10 m
スパン 29.00 m
形状 Box + pan
製造者 SPXS
バスタイプ Starlink V2M
フェーズステータス In Orbit
所有者/国 SPXS/US

Most Searched